This is the latest recevied weather packets stored in our database for station/object G1OCN-WX. If no packets are shown the sender has not sent any weather packets the latest 10 day(s).
| Time | Temp. | Humidity | Pressure | Rain* | Wind** | Luminosity | Snow |
|---|---|---|---|---|---|---|---|
| 1787491083 | 20° C | 59% | 1025 hPa | 0 mm | - | - | - |
| 1787490183 | 20° C | 60% | 1025.1 hPa | 0 mm | - | - | - |
| 1787489283 | 19.44° C | 62% | 1025.3 hPa | 0 mm | - | - | - |
| 1787488383 | 20° C | 61% | 1025.3 hPa | 0 mm | - | - | - |
| 1787487483 | 19.44° C | 62% | 1025.4 hPa | 0 mm | - | - | - |
| 1787486583 | 19.44° C | 62% | 1025.5 hPa | 0 mm | - | - | - |
| 1787485683 | 19.44° C | 64% | 1025.4 hPa | 0 mm | - | - | - |
| 1787484783 | 19.44° C | 67% | 1025.5 hPa | 0 mm | - | - | - |
| 1787483883 | 18.89° C | 68% | 1025.5 hPa | 0 mm | - | - | - |
| 1787482983 | 18.89° C | 69% | 1025.4 hPa | 0 mm | - | - | - |
| 1787482083 | 19.44° C | 68% | 1025.4 hPa | 0 mm | - | - | - |
| 1787481153 | 19.44° C | 68% | 1025.4 hPa | 0 mm | - | - | - |
| 1787480252 | 18.89° C | 67% | 1025.5 hPa | 0 mm | - | - | - |
| 1787479352 | 19.44° C | 66% | 1025.5 hPa | 0 mm | - | - | - |
| 1787478452 | 18.89° C | 68% | 1025.6 hPa | 0 mm | - | - | - |
| 1787477552 | 18.89° C | 69% | 1025.6 hPa | 0 mm | - | - | - |
| 1787476622 | 18.33° C | 70% | 1025.5 hPa | 0 mm | - | - | - |
| 1787475722 | 18.33° C | 70% | 1025.5 hPa | 0 mm | - | - | - |
| 1787474822 | 18.33° C | 71% | 1025.5 hPa | 0 mm | - | - | - |
| 1787473922 | 17.78° C | 72% | 1025.5 hPa | 0 mm | - | - | - |
| 1787473022 | 17.22° C | 74% | 1025.6 hPa | 0 mm | - | - | - |
| 1787472122 | 17.22° C | 73% | 1025.5 hPa | 0 mm | - | - | - |
| 1787471222 | 17.22° C | 73% | 1025.5 hPa | 0 mm | - | - | - |
| 1787470322 | 16.11° C | 74% | 1025.4 hPa | 0 mm | - | - | - |
| 1787469422 | 16.11° C | 74% | 1025.3 hPa | 0 mm | - | - | - |
* Rain latest hour (hover to see other rain measurements)
** Current wind speed in m/s (hover to see current wind gust speed)